Location: Bellflower
(33.8817°N, 118.1170°W)
Time: 14:01:04
(UTC+00:00)

Cosmos 2263 Rocket - Pass Details

Date: 23 November 2020
Orbit: 823 x 849 km, 71.0° (Epoch: 22 January)

Event Time Altitude Azimuth Distance (km) Brightness Sun altitude
Rises 12:56:49 0° 207° (SSW) 3,367 5.2 -19.7°
Reaches altitude 10° 12:59:16 10° 210° (SSW) 2,441 4.4 -19.2°
Maximum altitude 13:04:49 66° 292° (WNW) 913 2.1 -18.1°
Drops below altitude 10° 13:10:28 10° 15° (NNE) 2,470 4.6 -17.0°
Sets 13:12:57 0° 18° (NNE) 3,411 5.4 -16.5°
